Regional Weather Roundup
Issued by NWS Kansas City/Pleasant Hill, MO

Home | Current Version | Previous Version | Graphics & Text | Print | Product List | Glossary Off
Versions: 1 2 3 4 5 6 7 8 9 10 11 12 13 14 15 16 17 18 19 20 21 22 23 24 25 26 27 28 29 30 31 32 33 34 35 36 37 38 39 40 41 42 43 44 45 46 47 48 49 50

000
ASUS43 KEAX 301310
RWREAX

WEATHER ROUNDUP FOR EASTERN KANSAS AND NORTHWEST MISSOURI
NATIONAL WEATHER SERVICE KANSAS CITY/PLEASANT HILL MO
800 AM CDT WED JUL 30 2014

KSZ040-057-103>105-MOZ028-029-037-043-301400-
...KANSAS CITY METROPOLITAN AREA...

CITY           SKY/WX    TMP DP  RH WIND       PRES   REMARKS
K.C. INTL      CLOUDY    63  60  90 N6        30.12R
K.C. DOWNTOWN  CLOUDY    68  60  75 N5        30.11R
LEES SUMMIT    CLOUDY    65  59  81 N5        30.12R
OLATHE - IXD   CLOUDY    67  62  84 N3        30.12R
OLATHE - OJC   CLOUDY    68  59  73 N3        30.11R
LAWRENCE       CLOUDY    68  59  73 CALM      30.12R

$$

MOZ001>008-011>017-020>025-030>033-038>040-044>046-053-054-301400-
...NORTHERN AND CENTRAL MISSOURI...

CITY           SKY/WX    TMP DP  RH WIND       PRES   REMARKS
ST. JOSEPH     CLOUDY    63  60  90 N3        30.12R
MOSBY          CLOUDY    63  61  94 CALM      30.11R
WHITEMAN AFB   PTSUNNY   64  54  70 CALM      30.10R
CLINTON        CLOUDY    64  63  94 CALM      30.10R
SEDALIA        CLOUDY    65  59  81 CALM      30.10S
WARSAW         NOT AVBL
MARSHALL       CLOUDY    66  66 100 CALM      30.12R
CHILLICOTHE      N/A     64  58  80 CALM      30.13R
MOBERLY        MOSUNNY   66  59  77 CALM      30.11R
KIRKSVILLE     SUNNY     66  59  78 NW3       30.12R

$$

MOZ041-047>049-056>058-063>065-088>090-097-301400-
...EASTERN AND SOUTHERN MISSOURI...

CITY           SKY/WX    TMP DP  RH WIND       PRES   REMARKS
ST. LOUIS INTL PTSUNNY   72  59  63 CALM      30.10R
SPIRIT OF STL  PTSUNNY   65  59  81 CALM      30.09R
COLUMBIA       CLOUDY    68  59  73 CALM      30.10S
JEFFERSON CITY CLOUDY    62  59  90 W3        30.10R
MEXICO         PTSUNNY   66  66 100 N3        30.11R
HANNIBAL       CLOUDY    70  59  68 CALM      30.11R
ROLLA          CLOUDY    63  58  83 CALM      30.09R
LEBANON        CLOUDY    66  61  82 CALM      30.11S
OSAGE BEACH    CLOUDY    61  57  88 CALM      30.10R
SPRINGFIELD    PTSUNNY   71  59  65 CALM      30.09S
BRANSON        CLOUDY    66  63  88 CALM      30.11S
NEVADA         CLOUDY    68  63  83 CALM      30.11S
JOPLIN         CLOUDY    67  65  93 SE6       30.09F
WEST PLAINS    MOSUNNY   66  59  78 SW6       30.12R
MALDEN         MOSUNNY   66  61  82 NE3       30.12R

$$

IAZ060-094-KSZ022-034>040-054-083-096-NEZ052-066-093-301400-
...KANSAS...SOUTHEAST NEBRASKA AND IOWA...

CITY           SKY/WX    TMP DP  RH WIND       PRES   REMARKS
TOPEKA         CLOUDY    68  61  78 CALM      30.12R
MANHATTAN      CLOUDY    66  64  93 CALM      30.12S
EMPORIA        CLOUDY    66  63  90 NE9       30.10S
CHANUTE        CLOUDY    69  63  81 NE7       30.10R
WICHITA        CLOUDY    71  61  70 NE8       30.07S
OMAHA          MOSUNNY   61  57  87 N6        30.15S
LINCOLN        SUNNY     62  56  80 N3        30.16S
FALLS CITY     PTSUNNY   65  59  81 CALM      30.13R
LAMONI         SUNNY     62  56  80 N5        30.13R
DES MOINES     MOSUNNY   63  56  78 NW3       30.11R

$$



USA.gov is the U.S. government's official web portal to all federal, state and local government web resources and services.